FENGYUN 1C DEB, 30567

Orbit data source: Space-Track

FENGYUN 1C DEB, 30567 is space debris in SSO originally from a launch on Mon, 10 May 1999 UTC launched from the Taiyaun Space Center, China (TSC). Fengyun 1C debris stems from the Chinese weather satellite Fengyun-1C, which was intentionally destroyed by a Chinese anti-satellite missile in 2007. This event dramatically increased the amount of space debris, with thousands of trackable fragments posing hazards to satellites and human spaceflight. The Fengyun 1C debris cloud has become a focal point in discussions about space sustainability and the need for international regulations to prevent the creation of new debris.

Loading next visibility...
Identifier
30567, 1999-025ALH
Orbit
SSO
Country
Flag of CNCN / PRC
Related business
Manufacturer
Unknown
Mission
Spacecraft
Bus & Motor
Unknown
Mass
Unknown
Launch date (UTC)
1999-05-10 (26 years ago)
Launch vehicle
Unknown
Launch site
Taiyaun Space Center, China (TSC)
Object type
Payload
Rocket body
Debris
Shape & HBR
Unknown shape, 0.1 m
Radar Cross Section
Small (<0.1 m²)

Expand to show TLE details & history
Last TLE update: 1 day ago

TLE from 1 day ago
0 FENGYUN 1C DEB
1 30567U 99025ALH 25303.95127203  .00000756  00000-0  43870-3 0  9991
2 30567  98.7743 295.7662 0108476 311.0695 103.5353 14.08825843961716
Epoch: 2025-10-30T22:49Z
TLE epoch observation values (Epoch: 2025-10-30T22:49:49.903Z)
Latitude
54.93405°
Longitude
-98.82946°
Altitude
891.634 km
Speed
7.402 km/s
True Right ascension
18h 52m 31s
True Declination
54° 46' 31"
Sunlit
Object was in daylight at epoch
Visualization orbit readout
Latitude
Unknown
Longitude
Unknown
Altitude
Unknown
Speed
Unknown
Apparent Right ascension
Unknown
Apparent Declination
Unknown
Sunlit
N/A
Visualization observer readout
Local Sidereal Time
20:59:08
Azimuth
Unknown
Elevation
Unknown
Doppler factor
Unknown
Orbital elements
Apogee altitude
939.091 km
Perigee altitude
782.046 km
Semi-major axis
7,238.706 km
Eccentricity
0.01085
Inclination
98.7743°
RAAN
295.7662°
Arg. of periapsis
311.0695°
True anomaly
104.73991°
Mean anomaly
103.5353°
Eccentric anomaly
104.138°
Mean motion
3.52413 °/min
Orbital period
102.15 mins
BSTAR
0.0004387
Loading maneuver chart data...
Computing Atmospheric mass density...

Documentation

Showing up to 5 results
|